Flag for Belgium Weather past 2 weeks in Charleroi, Belgium

Now
77 °F

Passing clouds.


Feels Like: 79 °F
Forecast: 66 / 81 °F
Wind: 12 mph from Northeast

Location: Charleroi / Gosselies

Current Time: Jul 23, 2014 at 1:44:12 AM

Latest Report: Jul 22, 2014 at 6:50 PM


Visibility: N/A

Pressure: 30.09 "Hg

Humidity: 51%

Dew point: 57 °F

Location of CharleroiLocation

Historic Weather in Charleroi — Graph

°F

Charleroi temperature yesterday

Maximum temperature yesterday: 79 °F (at 3:20 PM)
Minimum temperature yesterday: 63 °F (at 12:20 AM)
Average temperature yesterday: 68 °F

Past Weeks' High & Low Weather Summary

 TemperatureHumidityPressure
High91 °F (Jul 18, 4:20 PM)100% (Jul 8, 5:20 AM)30.21 "Hg (Jul 8, 5:20 AM)
Low54 °F (Jul 9, 1:50 AM)34% (Jul 18, 4:20 PM)29.77 "Hg (Jul 10, 12:20 AM)
Average66 °F78%29.98 "Hg
* Reported Jul 7 6:20 PM — Jul 22 6:50 PM, Charleroi, Weather by CustomWeather, © 2014

Note: Actual official high and low records may vary slightly from our data, if they occured in-between our weather recording intervals... More about our weather records

Advertising

Charleroi weather history for previous 24 hours

 ConditionsComfort  
Time TempWeatherWind HumidityBarometerVisibility
6:50 PM
Jul 22
77 °FPassing clouds.12 mph51%30.09 "HgN/A
6:20 PM77 °FPassing clouds.10 mph51%30.07 "HgN/A
5:50 PM79 °FPassing clouds.9 mph45%30.07 "HgN/A
5:20 PM79 °FPassing clouds.8 mph45%30.07 "HgN/A
4:50 PM79 °FPassing clouds.10 mph48%30.07 "HgN/A
4:20 PM79 °FPassing clouds.10 mph54%30.07 "HgN/A
3:50 PM79 °FPassing clouds.10 mph58%30.09 "HgN/A
3:20 PM79 °FPassing clouds.10 mph58%30.09 "HgN/A
2:50 PM77 °FPassing clouds.8 mph65%30.09 "HgN/A
2:20 PM75 °FPassing clouds.7 mph65%30.09 "HgN/A
1:50 PM73 °FScattered clouds.8 mph74%30.09 "Hg4 mi
1:20 PM72 °FFog.8 mph83%30.09 "Hg2 mi
12:50 PM68 °FFog.5 mph94%30.09 "Hg2 mi
12:20 PM68 °FFog.7 mph88%30.09 "Hg1 mi
11:50 AM66 °FFog.8 mph94%30.09 "Hg1 mi
11:20 AM66 °FFog.7 mph94%30.09 "Hg1 mi
10:50 AM64 °FDrizzle. Fog.7 mph94%30.07 "Hg1 mi
10:20 AM64 °FDrizzle. Fog.7 mph94%30.07 "Hg1 mi
9:50 AM64 °FDrizzle. Fog.6 mph94%30.07 "Hg1 mi
9:20 AM63 °FDrizzle. Fog.6 mph100%30.07 "Hg1 mi
8:50 AM63 °FDrizzle. Fog.8 mph100%30.07 "Hg1 mi
8:20 AM63 °FDrizzle. Fog.8 mph94%30.07 "Hg1 mi
7:50 AM63 °FDrizzle. Fog.7 mph94%30.07 "Hg1 mi
7:20 AM63 °FDrizzle. Fog.7 mph94%30.07 "Hg1 mi
6:50 AM63 °FDrizzle. Fog.7 mph94%30.07 "Hg1 mi
6:20 AM63 °FDrizzle. Fog.8 mph94%30.07 "Hg1 mi
5:50 AM63 °FDrizzle. Fog.8 mph94%30.07 "Hg1 mi
5:20 AM63 °FDrizzle. Fog.7 mph94%30.04 "Hg1 mi
4:50 AM63 °FDrizzle. Fog.7 mph94%30.07 "Hg1 mi
4:20 AM63 °FDrizzle. Fog.7 mph94%30.04 "Hg1 mi
3:50 AM63 °FDrizzle. Fog.7 mph94%30.04 "Hg1 mi
3:20 AM63 °FDrizzle. Fog.6 mph94%30.07 "Hg1 mi
2:50 AM63 °FDrizzle. Fog.7 mph94%30.07 "Hg1 mi
2:20 AM63 °FFog.8 mph94%30.07 "Hg1 mi
1:50 AM63 °FDrizzle. Fog.9 mph94%30.07 "Hg1 mi
1:20 AM63 °FDrizzle. Fog.7 mph94%30.07 "Hg1 mi
Weather by CustomWeather, © 2014

See weather overviewHow to use our weather pages